Regional Weather Roundup
Issued by NWS

Home | Current Version | Previous Version | Graphics & Text | Print | Product List | Glossary On
Versions: 1 2 3 4 5 6 7 8 9 10 11 12 13 14 15 16 17 18 19 20 21 22 23 24 25 26 27 28 29 30 31 32 33 34 35 36 37 38 39 40 41 42 43 44 45 46 47 48 49 50
525
ASUS45 KABQ 220710
RWRNM
NEW MEXICO REGIONAL WEATHER ROUNDUP
NATIONAL WEATHER SERVICE ALBUQUERQUE NM
1200 AM MST WED NOV 22 2017

NOTE: "FAIR" MEANS FEW OR NO CLOUDS BELOW 12,000 FEET AGL WITH NO
       SIGNIFICANT WEATHER OR OBSTRUCTIONS TO VISION.

      THIS PRODUCT IS RELEASED AS TWO VERSIONS.  ONE VERSION NEAR
      THE TOP OF THE HOUR CONTAINING PRELIMINARY DATA FROM ALBUQUERQUE
      AND OTHER STATIONS.  A FINAL VERSION WITH ADDITIONAL DATA IS
      ISSUED ABOUT 10 MINUTES AFTER THE HOUR.

NMZ501-503-504-510>518-220800-
NORTHWEST PLATEAU/NORTHCENTRAL MOUNTAINS

CITY           SKY/WX    TMP DP  RH WIND       PRES   REMARKS
FARMINGTON     FAIR      34  22  61 NE8       30.36R WCI  27
SANTA FE       FAIR      39  29  67 SE10      30.43S WCI  32
TAOS           FAIR      32  20  61 NE8       30.46R WCI  25
ANGEL FIRE     FAIR      32  22  68 W9        30.43S WCI  24

$$
NMZ402-403-502-505>509-220800-
WESTCENTRAL MOUNTAINS/SOUTHWEST MOUNTAINS

CITY           SKY/WX    TMP DP  RH WIND       PRES   REMARKS
GALLUP         FAIR      27  16  63 E6        30.42F WCI  20
GRANTS         FAIR      32  21  63 NW14G21   30.46S WCI  22
SILVER CITY    FAIR      46  20  34 NE5       30.38S

$$
NMZ407-409-411-412-220800-
SOUTHERN DESERTS

CITY           SKY/WX    TMP DP  RH WIND       PRES   REMARKS
DEMING         FAIR      48  18  30 NE10      30.34R
LAS CRUCES     FAIR      54  20  26 SE9       30.36R
HOLLOMAN AFB   FAIR      47  19  32 N6        30.36R
ALAMOGORDO     FAIR      45  18  33 NE12      30.34R
T OR C         FAIR      51  18  27 N6        30.34F

$$
NMZ519>523-220800-
CENTRAL VALLEYS/CENTRAL HIGHLANDS

CITY           SKY/WX    TMP DP  RH WIND       PRES   REMARKS
ALBUQUERQUE    FAIR      49  22  34 NE10      30.40R
MORIARTY ARPT  FAIR      30  21  71 SE3       30.46S
CLINES CORNERS FAIR      31  24  75 SE8       30.45F WCI  23
BELEN          FAIR      45  24  43 SE3       30.39S
SOCORRO        FAIR      41  15  35 NW5       30.38R

$$
NMZ524>526-539-540-220800-
SOUTHCENTRAL MOUNTAINS

CITY           SKY/WX    TMP DP  RH WIND       PRES   REMARKS
RUIDOSO        FAIR      36  23  60 S5        30.47F WCI  32

$$
NMZ527>531-220800-
NORTHEAST HIGHLANDS/NORTHEAST PLAINS

CITY           SKY/WX    TMP DP  RH WIND       PRES   REMARKS
LAS VEGAS      FAIR      30  25  81 SW14      30.42F WCI  19
RATON          FAIR      29  24  82 SW3       30.41R
CLAYTON        FAIR      31  24  75 W10       30.38F WCI  22

$$
NMZ532>537-220800-
EASTCENTRAL PLAINS

CITY           SKY/WX    TMP DP  RH WIND       PRES   REMARKS
SANTA ROSA     FAIR      35  26  70 SW3       30.43S
TUCUMCARI      FAIR      33  24  69 CALM      30.39F
CANNON AFB     FAIR      33  27  80 N5        30.43S WCI  28
CLOVIS AIRPORT FAIR      33  25  72 NW6       30.43S WCI  28

$$
NMZ028-029-538-220800-
SOUTHEAST PLAINS

CITY           SKY/WX    TMP DP  RH WIND       PRES   REMARKS
ROSWELL        FAIR      44  26  49 NW3       30.43R
ARTESIA        FAIR      41  27  56 NW9       30.43R
CARLSBAD       FAIR      47  28  47 N7        30.41R
HOBBS          FAIR      36  25  64 N6        30.41R WCI  31


$$




USA.gov is the U.S. government's official web portal to all federal, state and local government web resources and services.